Theta_e
303 304 308 306 309 309 310 311 316 315 318 317 317 324 328 329 331 328 318 326 326 323 325 324 313 314 314 315 316 317 322 324 320 321 323 321 325 320 323 328 329 329 327 328 325
302 303 305 306 308 310 311 314 315 315 318 318 316 322 325 328 329 325 325 325 327 326 322 322 314 314 316 316 316 320 325 324 319 320 323 322 325 321 326 328 329 329 325 326 326
302 303 305 308 311 310 310 312 314 315 316 318 316 322 324 326 321 319 326 324 322 328 326 323 314 315 317 316 316 317 325 320 317 317 317 322 319 321 326 328 327 328 325 325 327
301 302 305 307 309 310 309 310 313 314 316 319 316 321 323 323 325 323 324 320 322 325 327 329 319 318 321 318 315 319 316 316 315 315 315 320 322 321 325 326 325 326 324 323 326
303 302 305 307 309 311 310 312 313 314 317 319 316 319 323 321 322 322 322 319 322 325 326 328 323 319 322 323 318 316 316 314 313 314 315 315 319 324 322 321 320 324 324 323 326
305 304 305 308 309 310 310 310 315 314 315 316 317 319 321 320 320 322 320 320 323 323 326 327 328 326 324 322 319 316 314 313 312 314 313 316 315 316 321 320 319 323 324 323 323
305 304 306 307 309 309 308 309 312 314 314 314 317 320 321 321 321 321 322 320 321 323 327 328 331 331 326 322 324 317 318 313 314 313 314 314 315 316 317 319 321 322 325 325 326
306 306 304 304 307 307 308 308 311 310 314 314 318 320 322 321 322 321 322 322 320 318 321 328 329 329 326 324 319 318 320 322 319 314 313 314 319 319 316 320 323 326 328 326 324
303 302 299 304 303 302 302 306 309 309 312 313 316 320 320 318 321 320 322 322 320 316 317 318 322 320 322 324 323 318 326 327 322 313 314 316 319 318 316 321 322 325 327 329 328
303 302 301 297 298 301 301 303 309 309 313 313 315 321 314 318 320 321 321 321 319 314 311 314 318 312 318 329 334 326 318 317 330 316 313 316 317 314 314 320 320 324 325 327 328
303 303 302 298 297 299 303 306 308 308 310 316 316 320 317 317 319 319 320 318 313 311 313 311 313 317 316 326 329 325 328 329 320 312 315 316 317 318 313 316 319 321 324 326 326
303 304 302 297 301 304 304 308 307 310 312 313 317 319 316 318 313 315 318 313 312 313 309 308 313 316 317 318 316 322 329 327 311 311 314 316 316 317 314 313 316 318 321 323 325
303 304 302 298 302 304 304 303 306 308 307 315 316 316 316 318 313 313 315 311 310 312 309 311 313 310 311 315 316 319 326 317 319 311 311 312 316 316 315 313 312 313 317 319 322
304 304 302 300 303 304 304 304 305 308 308 312 315 312 314 317 315 316 315 312 309 308 308 309 308 309 309 314 316 317 314 315 313 317 322 311 326 321 318 314 312 313 313 314 316
304 304 302 300 303 304 304 305 305 304 313 312 313 313 313 316 312 313 315 314 310 308 308 311 308 309 311 311 311 315 312 314 312 317 314 312 319 322 314 316 315 313 314 314 315
304 304 302 302 303 303 303 303 305 306 315 314 312 312 313 312 314 311 311 311 310 308 308 309 307 308 310 307 310 307 309 309 309 312 318 317 316 320 317 316 318 314 314 315 317
304 304 302 302 303 304 306 304 306 311 309 310 312 313 314 312 312 314 310 311 313 312 313 309 308 307 306 309 307 310 314 314 317 316 319 307 310 318 316 312 312 315 313 313 315
304 303 301 302 303 303 303 304 306 311 311 306 313 313 314 312 313 314 311 314 312 314 313 317 313 308 308 312 310 312 316 316 319 316 316 305 313 315 311 311 310 310 310 310 312
303 302 301 301 303 304 302 303 305 311 310 310 313 315 315 313 312 314 313 314 312 313 319 317 315 307 306 306 310 311 313 312 310 304 312 313 311 310 311 310 309 308 307 309 310
303 301 301 301 302 302 303 303 303 305 305 312 315 316 314 313 312 312 314 313 311 311 309 313 310 307 306 307 307 311 310 313 312 315 314 311 310 314 312 313 311 309 309 309 310
301 301 300 300 301 302 304 303 306 307 306 312 314 312 314 314 312 313 312 312 312 310 307 313 314 308 308 310 311 309 311 310 313 312 316 314 314 311 311 310 310 309 307 307 308
300 302 300 300 303 303 303 303 304 306 307 305 312 314 315 314 313 313 313 313 311 310 311 311 310 311 310 307 305 307 310 311 316 311 309 309 314 306 308 307 306 308 307 308 308
300 300 302 300 303 303 302 303 304 307 307 304 310 312 314 314 313 314 313 310 310 311 309 309 310 312 310 308 307 309 309 311 309 310 314 317 315 307 305 307 307 307 307 307 308
299 301 301 302 302 303 302 302 303 303 305 304 306 313 314 314 312 313 312 310 310 310 308 309 309 313 314 315 311 310 309 309 311 317 313 313 313 310 309 308 308 308 309 309 308
299 301 301 302 303 303 304 304 303 303 307 306 307 314 314 315 313 314 311 311 310 309 309 311 313 310 307 308 310 310 308 308 309 311 312 313 311 312 312 310 308 308 309 310 310
298 299 300 302 301 303 304 304 307 307 307 308 309 314 315 315 315 314 312 312 311 310 309 307 314 309 308 308 308 309 309 308 310 310 311 311 311 310 310 309 309 309 310 310 310
298 298 301 302 302 302 303 306 306 307 307 308 308 313 314 314 313 312 313 312 311 312 310 310 311 314 316 309 311 314 309 310 310 310 311 311 311 307 307 307 308 310 311 309 309
Wind_Speed
22 23 24 23 23 21 22 22 28 23 23 25 25 23 24 23 34 33 30 32 31 14 25 22 15 15 15 11 9 8 5 8 9 7 3 10 12 7 6 9 6 10 3 6 26
23 23 23 24 24 23 23 22 29 26 22 24 24 24 22 23 30 37 35 34 32 27 22 23 17 16 9 10 8 8 8 8 5 5 4 14 14 15 8 9 7 9 8 12 28
25 24 23 24 25 25 24 24 26 31 21 23 23 24 27 20 22 24 40 32 28 35 30 27 15 14 6 8 7 5 9 6 6 5 3 13 9 10 10 9 15 19 17 20 31
26 25 24 24 27 26 25 23 26 31 24 24 23 26 24 24 12 18 35 37 29 29 26 31 23 10 4 5 5 5 4 7 7 7 7 9 12 8 17 6 9 12 18 23 32
27 26 25 24 24 26 24 21 26 29 27 25 24 25 34 24 18 10 33 42 33 29 32 29 20 16 5 4 4 3 4 6 7 7 5 8 12 9 17 12 5 16 19 23 30
29 27 26 23 22 23 22 24 25 29 38 23 25 28 33 23 25 24 26 37 35 34 33 35 21 23 12 5 0 2 3 3 5 5 6 6 4 6 12 17 11 16 20 23 27
32 30 26 27 24 20 20 24 25 23 38 29 25 37 37 27 25 24 30 27 36 32 34 36 31 27 15 7 9 6 4 2 6 7 4 7 4 11 8 19 16 19 20 22 25
33 32 29 27 26 24 20 18 27 25 26 34 28 40 8 34 21 20 31 26 38 34 31 35 28 23 10 16 8 5 4 6 9 8 5 7 15 9 16 17 19 18 18 22 24
36 35 31 30 25 24 20 20 19 20 29 32 27 44 17 28 32 31 20 35 39 25 35 25 17 7 11 13 6 2 5 14 6 12 6 10 10 7 15 18 18 19 19 21 21
36 31 29 29 30 28 22 18 19 22 21 31 38 25 18 24 38 34 23 19 29 28 15 15 11 4 8 17 19 12 5 5 15 10 8 11 14 3 11 16 20 20 20 21 22
35 30 26 25 25 25 20 15 11 10 29 22 19 14 28 24 29 26 28 20 23 16 7 11 10 17 18 20 17 18 18 15 9 6 8 15 15 14 10 13 16 19 21 22 24
35 29 24 23 22 22 19 15 18 7 9 39 26 29 35 40 15 29 26 12 11 9 5 4 20 15 18 15 9 16 18 13 4 5 8 9 17 16 14 12 22 23 22 24 20
35 30 24 21 22 22 25 29 20 20 7 10 28 29 38 32 18 31 35 18 8 12 7 9 7 11 10 14 13 11 15 11 6 6 2 1 11 12 11 19 16 18 21 20 25
37 31 27 24 21 21 21 24 25 16 3 7 17 13 27 28 8 39 31 18 4 7 8 3 9 15 13 17 15 10 8 11 10 9 6 4 6 12 17 14 15 24 23 26 29
37 33 30 30 16 20 10 19 17 15 5 16 10 26 35 30 32 21 36 12 14 11 6 7 5 13 20 15 9 4 9 11 4 7 2 6 5 4 3 13 18 24 28 31 30
38 34 30 27 20 15 14 10 13 4 9 9 12 15 26 18 18 23 15 9 16 9 3 3 10 4 3 6 7 14 12 7 4 2 7 13 10 7 8 14 19 21 30 36 39
38 34 31 28 23 19 11 15 3 6 2 5 10 20 25 16 13 21 18 18 11 7 5 3 2 8 3 13 8 8 18 5 5 6 6 2 6 14 9 8 11 16 22 33 40
37 31 29 25 17 19 18 1 3 7 6 4 15 25 14 28 19 23 24 16 16 8 10 8 5 12 9 16 10 17 16 6 7 6 4 1 7 3 8 15 18 18 14 15 27
34 30 27 25 23 20 18 5 5 5 6 6 20 27 11 15 15 19 24 23 13 15 12 11 3 9 3 4 15 11 11 6 6 2 2 5 4 10 11 13 12 13 13 19 20
37 29 20 25 23 24 6 11 9 12 8 11 16 15 13 17 20 17 24 22 12 15 3 11 7 1 0 1 3 11 12 5 1 6 5 3 4 7 4 11 6 7 9 10 17
32 15 15 23 23 15 7 8 6 12 10 11 10 4 13 16 25 27 30 19 21 19 3 9 8 2 4 8 14 6 9 2 5 2 3 3 3 5 3 6 9 9 7 9 8
21 6 23 32 7 3 10 9 11 16 12 7 6 7 23 27 25 16 24 20 37 25 14 6 6 9 20 3 3 1 7 8 6 5 2 2 4 4 4 3 7 10 9 11 11
23 8 18 42 7 10 4 11 12 1 8 4 7 7 20 19 14 8 12 5 37 24 17 9 3 7 6 1 1 11 10 17 3 2 6 6 5 5 5 5 3 4 5 4 4
12 5 8 25 11 14 14 12 12 15 13 4 7 10 21 16 6 12 11 3 29 24 12 9 3 4 12 20 10 15 18 14 13 4 6 16 6 5 8 7 4 3 7 7 1
8 5 10 6 9 11 16 14 16 13 12 5 7 17 22 13 6 12 10 6 11 21 7 6 5 3 6 4 10 14 15 17 18 21 12 28 19 18 16 8 8 8 13 14 9
11 6 7 4 13 13 14 16 17 15 6 5 10 21 19 17 15 26 16 15 19 8 13 1 6 5 2 5 7 5 14 15 25 23 26 17 21 1 16 20 19 20 23 20 14
13 13 11 8 6 10 14 17 22 19 17 21 12 16 20 19 18 21 20 18 13 16 15 9 5 3 5 2 7 4 24 26 19 27 21 23 11 7 5 8 14 16 20 19 14
Wind_Direction
239 238 241 241 246 248 250 250 230 244 249 241 235 242 227 217 213 218 216 226 218 217 212 194 216 203 193 197 190 175 204 216 207 183 198 164 176 160 172 143 167 189 184 170 178
239 239 242 242 244 248 248 248 233 231 241 236 230 235 236 223 218 216 220 221 221 209 208 180 204 185 181 183 178 201 219 213 196 201 200 177 192 160 164 160 190 184 192 174 176
237 238 240 240 244 246 246 248 238 228 232 231 228 231 230 225 202 219 218 218 218 218 220 197 189 173 181 178 180 185 218 194 188 187 155 181 187 177 170 193 202 195 185 174 180
237 236 239 241 241 243 247 254 240 230 224 228 225 228 221 213 215 230 219 207 207 211 212 207 216 149 208 174 171 199 210 179 157 183 157 176 181 194 203 181 208 193 198 181 187
238 237 237 241 243 242 247 256 243 235 218 223 225 221 202 203 215 217 213 206 204 201 206 195 180 174 158 140 187 219 180 182 170 176 180 172 198 203 215 211 183 188 192 192 194
234 235 233 236 241 241 246 247 252 235 226 235 219 218 195 208 210 211 211 203 201 201 209 212 204 193 166 140 35 339 173 194 181 180 178 177 194 197 227 204 193 188 197 199 202
229 233 232 233 236 239 240 243 248 234 233 237 215 211 191 196 202 217 222 194 195 200 206 210 213 192 171 127 215 11 206 214 197 186 174 154 175 221 220 193 194 192 199 202 204
224 232 228 228 232 240 243 242 235 261 228 225 210 203 210 206 199 216 220 208 191 194 204 204 208 190 170 139 65 36 302 199 189 183 174 202 238 226 201 191 202 197 197 204 209
226 232 234 226 227 234 242 246 242 251 233 221 215 211 202 185 201 212 214 208 193 189 203 188 185 153 143 138 104 87 218 206 188 209 156 211 234 202 189 197 204 205 204 207 209
226 229 231 230 230 235 241 242 244 250 247 231 229 189 168 186 183 193 210 212 187 186 154 172 203 179 192 175 183 166 197 222 206 184 200 200 243 177 196 205 209 207 209 211 213
221 223 226 225 224 226 228 221 235 257 247 237 177 192 178 162 170 175 197 198 154 141 176 175 195 205 180 191 174 167 197 187 194 173 179 218 237 229 196 210 216 216 214 217 220
215 217 221 218 211 215 215 203 208 215 283 235 202 191 169 163 126 154 174 142 151 155 124 97 223 204 178 179 150 176 185 188 113 147 200 216 240 237 217 222 217 215 215 220 215
210 210 214 208 203 212 217 214 211 222 248 215 205 181 171 167 141 154 155 129 137 150 161 163 214 168 162 178 161 185 188 172 146 158 191 209 262 230 227 229 228 226 225 224 219
207 205 208 191 199 210 216 217 223 219 285 227 189 183 169 177 136 158 147 135 129 134 134 223 253 168 159 180 164 176 195 155 144 179 212 213 263 228 225 221 216 225 221 226 224
205 201 204 195 193 207 200 211 206 179 250 161 158 175 165 168 137 173 161 144 136 146 166 172 244 177 178 173 169 165 153 147 148 191 231 177 245 217 242 228 223 223 221 227 228
201 198 197 195 193 202 212 170 166 198 232 188 137 170 159 146 159 143 167 130 119 108 324 20 309 282 213 108 176 142 114 85 95 177 247 224 229 231 216 226 230 221 218 225 229
197 195 193 191 202 176 150 145 156 241 116 217 169 157 160 154 131 154 174 150 140 133 151 147 241 306 284 128 151 181 156 142 181 204 238 53 225 258 237 243 236 228 225 226 229
193 187 187 188 191 184 183 53 215 210 212 265 167 155 160 150 162 168 162 162 158 137 128 184 169 204 198 187 183 176 180 159 172 187 176 109 235 235 266 268 257 255 253 243 238
184 182 184 186 176 163 141 181 226 225 153 208 161 156 157 158 140 159 176 177 166 174 149 180 161 171 214 170 166 182 199 113 104 12 153 205 265 265 270 265 249 261 253 253 249
175 173 183 182 177 169 167 194 219 245 302 218 179 173 158 162 147 163 176 186 172 186 42 174 122 137 74 103 18 204 143 164 214 157 204 193 260 241 209 249 283 282 275 253 250
161 148 188 177 174 167 204 205 199 233 197 230 190 139 157 161 163 163 172 179 192 182 165 175 125 155 182 208 188 156 183 157 150 199 185 195 209 215 231 252 278 288 299 288 266
147 147 169 168 170 187 205 185 205 253 219 275 241 160 170 172 171 169 187 174 185 162 173 196 110 150 191 81 321 144 172 186 203 186 148 77 270 175 216 268 272 295 305 284 283
141 111 174 171 176 194 224 210 213 142 222 234 230 196 166 173 162 178 169 57 171 170 162 182 130 118 104 33 215 220 193 201 139 86 188 185 198 170 212 250 279 296 348 353 290
135 152 171 195 208 189 187 205 212 229 255 272 281 157 148 173 116 172 153 136 176 170 155 109 127 162 181 205 148 196 201 200 188 209 145 236 190 212 204 188 200 108 51 7 333
154 181 172 177 200 213 193 200 211 217 224 205 262 170 161 161 123 162 147 109 152 174 152 128 133 118 57 71 154 186 175 171 192 221 198 248 227 227 247 214 229 278 299 304 309
145 155 163 166 192 192 211 215 196 196 193 218 237 184 174 169 176 174 161 164 174 169 187 329 143 136 57 70 88 137 173 180 210 217 234 251 255 214 233 251 260 272 285 287 262
170 156 160 172 169 185 207 207 209 196 221 217 251 200 192 190 172 156 168 167 143 168 174 156 117 89 161 111 74 322 205 201 210 222 227 233 243 156 209 225 231 247 265 267 258